FW7308 Weather Reports


time (UTC)temp
F
wind
direction
speed
knots
gust
knots
rain 1hr
in
rain 24hr
in
rain mn
in
humidity
%
barometer
mb
20260509093647 39 74 2.6 2.6 0.00 0.00 0.00 85 1015.1
20260509093146 38 0 1.7 1.7 0.00 0.00 0.00 87 1015.1
20260509092645 37 350 0.9 0.9 0.00 0.00 0.00 88 1015.1
20260509092144 36 0.0 0.0 0.00 0.00 0.00 91 1015.1
20260509091643 35 334 0.9 0.9 0.00 0.00 0.00 93 1015.1
20260509091145 35 0.0 0.0 0.00 0.00 0.00 93 1015.1
20260509090647 35 0.0 0.0 0.00 0.00 0.00 93 1015.1
20260509090143 35 326 0.9 0.9 0.00 0.00 0.00 92 1014.9
20260509085645 35 326 0.9 0.9 0.00 0.00 0.00 92 1015.1
20260509085143 36 356 0.9 1.7 0.00 0.00 0.00 91 1014.7
20260509084646 35 0.0 0.0 0.00 0.00 0.00 93 1014.7
20260509084242 34 340 0.9 0.9 0.00 0.00 0.00 93 1014.9
20260509083644 34 336 0.0 0.9 0.00 0.00 0.00 94 1014.7
20260509083140 34 331 0.0 0.9 0.00 0.00 0.00 93 1014.4
20260509082643 0 0.0 0.0 0.00 0.00 0.00 1014.4
20260509082140 0 0.0 0.0 0.00 0.00 0.00 1014.4
20260509081639 34 326 0.9 0.9 0.00 0.00 0.00 92 1014.4
20260509081140 34 326 0.9 0.9 0.00 0.00 0.00 92 1014.4
20260509080639 34 342 1.7 1.7 0.00 0.00 0.00 91 1014.4
20260509080141 34 342 1.7 1.7 0.00 0.00 0.00 91 1014.4
20260509075638 34 323 1.7 1.7 0.00 0.00 0.00 91 1014.2
20260509074638 0 0.0 0.0 0.00 0.00 0.00 1014.4
20260509074238 34 326 1.7 1.7 0.00 0.00 0.00 92 1014.4
20260509073638 34 326 1.7 1.7 0.00 0.00 0.00 92 1014.4
20260509073138 34 330 1.7 1.7 0.00 0.00 0.00 91 1014.4
20260509072637 34 330 1.7 1.7 0.00 0.00 0.00 91 1014.4
20260509071637 34 327 0.9 0.9 0.00 0.00 0.00 92 1014.4
20260509070635 34 325 1.7 1.7 0.00 0.00 0.00 92 1014.2
20260509070135 34 325 1.7 1.7 0.00 0.00 0.00 91 1014.4
20260509065635 35 333 0.9 0.9 0.00 0.00 0.00 90 1014.4
20260509065137 35 0.0 0.0 0.00 0.00 0.00 90 1014.4
20260509064635 35 334 1.7 1.7 0.00 0.00 0.00 91 1014.4
20260509064135 35 326 2.6 2.6 0.00 0.00 0.00 90 1014.4
20260509063634 35 326 2.6 2.6 0.00 0.00 0.00 90 1014.5
20260509063135 35 327 2.6 2.6 0.00 0.00 0.00 90 1014.5
20260509062633 35 330 2.6 2.6 0.00 0.00 0.00 90 1014.7
20260509061632 35 326 1.7 1.7 0.00 0.00 0.00 90 1014.7
20260509061133 35 333 1.7 1.7 0.00 0.00 0.00 90 1014.7
20260509060632 35 325 1.7 1.7 0.00 0.00 0.00 90 1014.7
20260509060131 35 326 1.7 1.7 0.00 0.00 0.00 90 1014.9
20260509055630 35 320 1.7 1.7 0.00 0.00 0.00 90 1014.9
20260509055130 36 325 1.7 1.7 0.00 0.00 0.00 89 1015.1
20260509054631 36 0.0 0.0 0.00 0.00 0.00 88 1015.1
20260509054131 36 0.0 0.0 0.00 0.00 0.00 88 1015.1
20260509053128 36 324 1.7 1.7 0.00 0.00 0.00 88 1015.1
20260509052628 36 333 1.7 1.7 0.00 0.00 0.00 88 1015.1
20260509052130 36 331 1.7 1.7 0.00 0.00 0.00 87 1014.9
20260509051628 36 335 1.7 1.7 0.00 0.00 0.00 88 1015.1
20260509051127 36 325 1.7 1.7 0.00 0.00 0.00 89 1014.7
20260509050628 36 325 1.7 1.7 0.00 0.00 0.00 88 1014.7
20260509050128 36 325 1.7 1.7 0.00 0.00 0.00 88 1014.7
20260509045627 37 326 1.7 1.7 0.00 0.00 0.00 88 1014.7
20260509045126 37 326 1.7 1.7 0.00 0.00 0.00 88 1014.7
20260509044625 37 325 1.7 1.7 0.00 0.00 0.00 87 1014.7
20260509044124 37 332 1.7 2.6 0.00 0.00 0.00 87 1014.7
20260509043627 37 331 0.9 0.9 0.00 0.00 0.00 87 1014.7
20260509043125 37 329 1.7 1.7 0.00 0.00 0.00 87 1014.7
20260509042125 38 330 0.9 1.7 0.00 0.00 0.00 86 1014.7
20260509041625 38 328 1.7 1.7 0.00 0.00 0.00 85 1014.4
20260509041225 38 335 1.7 1.7 0.00 0.00 0.00 84 1014.7
20260509040623 38 327 0.9 1.7 0.00 0.00 0.00 85 1014.7
20260509040124 38 331 0.9 0.9 0.00 0.00 0.00 85 1014.5
20260509035623 38 331 0.9 0.9 0.00 0.00 0.00 84 1014.7
20260509035124 39 330 0.9 0.9 0.00 0.00 0.00 83 1014.7
20260509034121 39 326 0.9 0.9 0.00 0.00 0.00 83 1014.7
20260509033623 39 326 0.9 0.9 0.00 0.00 0.00 83 1014.4
20260509033123 39 327 0.9 0.9 0.00 0.00 0.00 83 1014.4
20260509032621 39 328 0.9 0.9 0.00 0.00 0.00 83 1014.5
20260509031621 0 0.0 0.0 0.00 0.00 0.00 1014.4
20260509031222 0 0.0 0.0 0.00 0.00 0.00 1014.4
20260509030619 0 0.0 0.0 0.00 0.00 0.00 1014.4
20260509030118 0 0.0 0.0 0.00 0.00 0.00 1014.4
20260509024618 0 0.0 0.0 0.00 0.00 0.00 1014.4
20260509024119 0 0.0 0.0 0.00 0.00 0.00 1014.2
20260509023618 0 0.0 0.0 0.00 0.00 0.00 1014.2
20260509023117 0 0.0 0.0 0.00 0.00 0.00 1014.0
20260509022618 0 0.0 0.0 0.00 0.00 0.00 1014.0
20260509022116 0 0.0 0.0 0.00 0.00 0.00 1014.0
20260509021645 41 337 0.9 0.9 0.00 0.00 0.00 79 1014.0
20260509021146 41 337 0.9 0.9 0.00 0.00 0.00 79 1014.0
20260509020645 41 331 0.9 0.9 0.00 0.00 0.00 78 1014.0
20260509020145 41 331 0.9 0.9 0.00 0.00 0.00 78 1013.7
20260509015644 41 308 1.7 4.3 0.00 0.00 0.00 78 1014.0
20260509015145 41 331 0.9 0.9 0.00 0.00 0.00 78 1014.0
20260509014644 42 0.0 0.0 0.00 0.00 0.00 77 1014.0
20260509014143 0 0.0 0.0 0.00 0.00 0.00 1013.7
20260509013644 44 318 1.7 1.7 0.00 0.00 0.00 70 1014.0
20260509013145 44 318 1.7 1.7 0.00 0.00 0.00 70 1013.7
20260509012142 44 327 0.9 0.9 0.00 0.00 0.00 72 1013.7
20260509011643 44 331 0.9 0.9 0.00 0.00 0.00 72 1013.3
20260509011243 0 0.0 0.0 0.00 0.00 0.00 1013.3
20260509010642 44 357 2.6 2.6 0.00 0.00 0.00 71 1013.3
20260509010241 44 357 2.6 2.6 0.00 0.00 0.00 71 1013.3
20260509005640 45 330 1.7 2.6 0.00 0.00 0.00 67 1013.3
20260509005143 45 320 0.9 2.6 0.00 0.00 0.00 68 1013.3
20260509004640 45 302 2.6 2.6 0.00 0.00 0.00 68 1013.0
20260509004140 45 302 2.6 2.6 0.00 0.00 0.00 68 1013.0
20260509003639 45 333 0.9 1.7 0.00 0.00 0.00 68 1012.6
20260509003138 45 293 2.6 6.1 0.00 0.00 0.00 68 1012.6
20260509002639 45 340 0.9 1.7 0.00 0.00 0.00 68 1013.0
20260509002139 45 328 1.7 1.7 0.00 0.00 0.00 68 1012.6
20260509001638 45 314 1.7 1.7 0.00 0.00 0.00 69 1012.6
20260509001137 45 338 1.7 2.6 0.00 0.00 0.00 69 1012.6
20260509000738 45 330 0.0 0.9 0.00 0.00 0.00 70 1012.6
20260509000137 46 330 0.0 0.9 0.00 0.00 0.00 68 1012.6
20260508235636 46 316 0.9 1.7 0.00 0.00 0.00 69 1012.6
20260508235135 46 349 0.9 1.7 0.00 0.00 0.00 67 1012.6
20260508234636 46 0.0 0.0 0.00 0.00 0.00 67 1012.6
20260508234136 46 316 1.7 2.6 0.00 0.00 0.00 67 1012.3
20260508233636 46 340 0.9 1.7 0.00 0.00 0.00 66 1012.4
20260508233136 47 0.0 0.0 0.00 0.00 0.00 67 1012.6
20260508232633 47 349 1.7 2.6 0.00 0.00 0.00 66 1012.3
20260508232135 47 302 2.6 4.3 0.00 0.00 0.00 65 1012.3
20260508231634 47 340 0.0 0.9 0.00 0.00 0.00 66 1012.3
20260508230635 47 349 0.9 1.7 0.00 0.00 0.00 66 1012.1
20260508225632 47 302 3.5 6.1 0.00 0.00 0.00 65 1012.3
20260508225136 47 322 3.5 4.3 0.00 0.00 0.00 65 1011.9
20260508224633 47 8 4.3 5.2 0.00 0.00 0.00 64 1011.9
20260508224134 47 326 2.6 4.3 0.00 0.00 0.00 64 1011.9
20260508223631 47 352 1.7 2.6 0.00 0.00 0.00 63 1011.9
20260508223131 47 331 2.6 4.3 0.00 0.00 0.00 64 1011.9
20260508222632 48 299 3.5 7.0 0.00 0.00 0.00 65 1012.1
20260508222131 47 330 4.3 7.8 0.00 0.00 0.00 67 1011.9
20260508221631 47 356 4.3 7.8 0.00 0.00 0.00 68 1012.3
20260508221129 47 356 2.6 7.0 0.00 0.00 0.00 67 1012.1
20260508220130 48 325 1.7 5.2 0.00 0.00 0.00 68 1011.9
20260508215629 47 326 1.7 2.6 0.00 0.00 0.00 67 1012.1
20260508215129 47 330 6.1 7.8 0.00 0.00 0.00 68 1011.9
20260508214627 48 313 3.5 5.2 0.00 0.00 0.00 67 1012.3
20260508213127 46 349 0.9 1.7 0.00 0.00 0.00 77 1011.9
20260508212626 45 312 0.9 1.7 0.00 0.00 0.00 79 1012.3
20260508212125 45 313 0.9 2.6 0.00 0.00 0.00 76 1012.3
20260508211626 46 297 3.5 4.3 0.00 0.00 0.00 72 1012.3
20260508210124 48 306 4.3 7.8 0.00 0.00 0.00 63 1011.9
20260508205627 48 356 7.8 11.3 0.00 0.00 0.00 60 1011.6
20260508205124 49 296 2.6 4.3 0.00 0.00 0.00 56 1011.6
20260508204625 50 342 6.1 8.7 0.00 0.00 0.00 52 1011.6
20260508203623 52 332 2.6 4.3 0.00 0.00 0.00 49 1011.2
20260508202622 52 341 1.7 2.6 0.00 0.00 0.00 49 1011.2
20260508193622 55 325 3.5 5.2 0.00 0.00 0.00 45 1010.9
20260508193119 52 338 0.9 1.7 0.00 0.00 0.00 48 1010.5
20260508192620 52 306 2.6 5.2 0.00 0.00 0.00 48 1010.7
20260508192117 52 337 2.6 4.3 0.00 0.00 0.00 49 1010.9
20260508191617 52 316 2.6 5.2 0.00 0.00 0.00 47 1010.9
20260508191119 52 0 2.6 5.2 0.00 0.00 0.00 47 1010.9
20260508190617 53 338 1.7 1.7 0.00 0.00 0.00 45 1010.9
20260508185718 52 334 3.5 6.1 0.00 0.00 0.00 46 1010.9
20260508185117 53 329 1.7 1.7 0.00 0.00 0.00 46 1010.9
20260508184646 53 317 5.2 7.0 0.00 0.00 0.00 43 1010.9
20260508184245 52 284 4.3 7.0 0.00 0.00 0.00 44 1010.9
20260508183646 53 9 9.6 13.0 0.00 0.00 0.00 43 1010.7
20260508183145 53 342 4.3 7.0 0.00 0.00 0.00 43 1010.9
20260508182644 54 7 5.2 8.7 0.00 0.00 0.00 43 1010.9
20260508181643 56 55 1.7 5.2 0.00 0.00 0.00 43 1010.9
20260508180644 53 321 1.7 4.3 0.00 0.00 0.00 43 1010.9
20260508180243 53 338 0.9 1.7 0.00 0.00 0.00 44 1010.9
20260508174642 54 315 3.5 4.3 0.00 0.00 0.00 42 1010.9
20260508174141 54 321 4.3 7.0 0.00 0.00 0.00 42 1010.9
20260508173643 53 296 4.3 7.0 0.00 0.00 0.00 42 1010.9
20260508173140 54 65 2.6 4.3 0.00 0.00 0.00 42 1011.0
20260508172641 53 338 4.3 7.0 0.00 0.00 0.00 44 1011.2
20260508172140 52 349 4.3 7.8 0.00 0.00 0.00 44 1010.9
20260508171641 52 356 3.5 5.2 0.00 0.00 0.00 42 1011.4
20260508171141 52 335 6.1 7.0 0.00 0.00 0.00 43 1011.2
20260508170639 51 314 2.6 4.3 0.00 0.00 0.00 45 1011.2
20260508163637 50 313 1.7 2.6 0.00 0.00 0.00 45 1011.6
20260508163136 50 295 2.6 5.2 0.00 0.00 0.00 45 1011.6
20260508162737 50 323 2.6 5.2 0.00 0.00 0.00 47 1011.4
20260508162136 50 332 3.5 6.1 0.00 0.00 0.00 45 1011.2
20260508161135 50 1 2.6 4.3 0.00 0.00 0.00 45 1011.2
20260508160135 51 1 0.9 0.9 0.00 0.00 0.00 43 1011.2
20260508155634 50 337 2.6 4.3 0.00 0.00 0.00 44 1011.2
20260508155133 51 3 6.1 8.7 0.00 0.00 0.00 43 1011.2
20260508154632 51 7 7.0 14.8 0.00 0.00 0.00 42 1011.2
20260508154134 50 344 0.9 1.7 0.00 0.00 0.00 43 1011.2
20260508153633 52 321 3.5 6.1 0.00 0.00 0.00 42 1011.2
20260508153234 53 133 2.6 6.1 0.00 0.00 0.00 41 1011.2
20260508152632 53 336 0.9 1.7 0.00 0.00 0.00 43 1010.9
20260508152133 52 313 2.6 4.3 0.00 0.00 0.00 43 1010.9
20260508151633 52 10 4.3 7.0 0.00 0.00 0.00 42 1010.9
20260508151131 51 328 3.5 6.1 0.00 0.00 0.00 42 1010.9
20260508150630 50 356 4.3 7.8 0.00 0.00 0.00 43 1010.9
20260508140126 49 269 4.3 7.0 0.00 0.00 0.00 50 1011.2
20260508135627 48 1 6.1 8.7 0.00 0.00 0.00 52 1011.2
20260508135126 48 340 5.2 7.8 0.00 0.00 0.00 51 1011.4
20260508134625 50 355 7.8 12.2 0.00 0.00 0.00 50 1011.6
20260508133626 48 335 0.0 0.9 0.00 0.00 0.00 53 1011.6
20260508133126 47 327 1.7 2.6 0.00 0.00 0.00 54 1011.6
20260508132624 47 358 2.6 7.0 0.00 0.00 0.00 54 1011.6
20260508132123 46 14 2.6 4.3 0.00 0.00 0.00 55 1011.6
20260508131622 47 358 2.6 4.3 0.00 0.00 0.00 56 1011.6
20260508131124 46 343 1.7 2.6 0.00 0.00 0.00 58 1011.6
20260508130623 45 318 2.6 4.3 0.00 0.00 0.00 58 1011.7
20260508130122 45 316 3.5 6.1 0.00 0.00 0.00 59 1011.6
20260508125621 45 314 1.7 2.6 0.00 0.00 0.00 59 1011.6
20260508125120 45 312 3.5 7.0 0.00 0.00 0.00 60 1011.6
20260508124622 44 326 0.9 1.7 0.00 0.00 0.00 59 1011.6
20260508124121 44 353 1.7 4.3 0.00 0.00 0.00 59 1011.6
20260508123621 44 318 4.3 6.1 0.00 0.00 0.00 60 1011.6
20260508123121 44 340 1.7 1.7 0.00 0.00 0.00 60 1011.6
20260508122620 44 313 2.6 6.1 0.00 0.00 0.00 61 1011.6
20260508122122 44 328 3.5 7.0 0.00 0.00 0.00 60 1011.6
20260508121718 44 323 2.6 4.3 0.00 0.00 0.00 61 1011.4
20260508121122 44 315 2.6 4.3 0.00 0.00 0.00 60 1011.6
20260508120620 44 330 0.9 0.9 0.00 0.00 0.00 61 1011.6
20260508120118 45 321 4.3 6.1 0.00 0.00 0.00 59 1011.6
20260508115617 46 321 2.6 2.6 0.00 0.00 0.00 60 1011.6
20260508115118 45 14 2.6 7.0 0.00 0.00 0.00 62 1011.6
20260508114617 44 330 1.7 2.6 0.00 0.00 0.00 62 1011.6
20260508114117 44 341 0.9 1.7 0.00 0.00 0.00 61 1011.2
20260508113621 44 322 3.5 5.2 0.00 0.00 0.00 61 1011.2
20260508113217 45 12 4.3 7.8 0.00 0.00 0.00 60 1011.2
20260508112656 45 302 1.7 1.7 0.00 0.00 0.00 63 1011.2
20260508102143 39 330 0.9 0.9 0.00 0.00 0.00 69 1010.5
20260508101641 39 336 0.0 0.9 0.00 0.00 0.00 73 1010.5
20260508101140 40 327 0.0 0.9 0.00 0.00 0.00 70 1010.1
20260508100641 40 327 0.9 0.9 0.00 0.00 0.00 70 1010.3
20260508100140 40 0.0 0.0 0.00 0.00 0.00 71 1010.5
20260508095640 40 334 0.9 1.7 0.00 0.00 0.00 70 1010.1
20260508095138 39 329 0.9 0.9 0.00 0.00 0.00 71 1010.5
20260508094640 38 330 0.9 1.7 0.00 0.00 0.00 75 1010.3
20260508094139 38 337 0.9 0.9 0.00 0.00 0.00 75 1010.1